Weather History for Gwinn, MI

Change the Weather History Date:

Friday, January 3, 2014

  Actual Average (KESC) Record (KESC)
Temperature  
Mean Temperature -2 °F -  
Max Temperature 14 °F 25 °F 44 °F (1998)
Min Temperature -17 °F 11 °F -9 °F (2014)
Degree Days  
Heating Degree Days 66    
Moisture  
Dew Point -7 °F    
Average Humidity 79    
Maximum Humidity 86    
Minimum Humidity 61    
Precipitation  
Precipitation 0.00 in - - ()
Sea Level Pressure  
Sea Level Pressure 29.99 in    
Wind  
Wind Speed 9 mph (SSW)    
Max Wind Speed 29 mph    
Max Gust Speed 44 mph    
Visibility 7 miles    
Events Snow    
Averages and records for this station are not official NWS values.
T = Trace of Precipitation, MM = Missing Value Source: NWS Daily Summary

Daily Weather History Graph

Daily Weather History Graph

Search for Another Location

Airport:

Trip Planner

Search our weather history database for the weather conditions in past years. The results will help you decide how hot, cold, wet, or windy it might be!

Date:

Astronomy

Jan. 03, 2014 Rise Set
Actual Time 8:32 AM EST 5:15 PM EST
Civil Twilight 7:58 AM EST 5:50 PM EST
Nautical Twilight 7:20 AM EST 6:28 PM EST
Astronomical Twilight 6:43 AM EST 7:04 PM EST
Moon 9:48 AM EST (1/3) 8:36 PM EST (1/3)
Length of Visible Light 9h 52m
Length of Day
8h 42m
Waxing Crescent, 8% of the Moon is Illuminated
Jan 3
Waxing Crescent
Jan 7
First Quarter
Jan 15
Full
Jan 24
Last Quarter
Jan 30
New

Hourly Weather History & Observations

Time (EST) Temp. Windchill Dew Point Humidity Pressure Visibility Wind Dir Wind Speed Gust Speed Precip Events Conditions
12:17 AM -6.2 °F -22.8 °F -10.5 °F 82% 30.27 in 10.0 mi WNW 9.2 mph - N/A   Clear
12:37 AM -7.2 °F -23.0 °F -11.7 °F 81% 30.26 in 10.0 mi West 8.1 mph - N/A   Clear
12:57 AM -7.8 °F -23.6 °F -12.1 °F 81% 30.27 in 10.0 mi West 8.1 mph - N/A   Clear
1:17 AM -8.7 °F -21.9 °F -13.4 °F 80% 30.27 in 10.0 mi West 5.8 mph - N/A   Clear
1:36 AM -10.1 °F -21.7 °F -14.8 °F 80% 30.26 in 10.0 mi West 4.6 mph - N/A   Clear
1:57 AM -11.2 °F - -15.7 °F 80% 30.26 in 10.0 mi Calm Calm - N/A   Clear
2:17 AM -10.8 °F - -15.3 °F 80% 30.27 in 10.0 mi Calm Calm - N/A   Clear
2:37 AM -11.4 °F - -15.9 °F 80% 30.26 in 10.0 mi Calm Calm - N/A   Clear
2:57 AM -12.1 °F - -16.6 °F 80% 30.27 in 10.0 mi Calm Calm - N/A   Mostly Cloudy
3:16 AM -13.0 °F - -17.7 °F 80% 30.27 in 10.0 mi Calm Calm - N/A   Mostly Cloudy
3:37 AM -11.9 °F - -16.6 °F 80% 30.27 in 4.0 mi Calm Calm - N/A Snow Light Snow
3:57 AM -11.9 °F - -16.4 °F 80% 30.26 in 10.0 mi Calm Calm - N/A   Scattered Clouds
4:17 AM -15.0 °F - -19.7 °F 79% 30.26 in 10.0 mi Calm Calm - N/A   Clear
4:37 AM -15.0 °F - -20.0 °F 78% 30.25 in 10.0 mi Calm Calm - N/A   Clear
4:56 AM -15.5 °F - -20.6 °F 78% 30.23 in 10.0 mi Calm Calm - N/A   Clear
5:17 AM -17.3 °F - -22.4 °F 78% 30.23 in 10.0 mi Calm Calm - N/A   Clear
5:37 AM -15.7 °F - -20.7 °F 78% 30.22 in 10.0 mi Calm Calm - N/A   Clear
5:57 AM -15.7 °F - -20.6 °F 79% 30.21 in 10.0 mi Calm Calm - N/A   Clear
6:50 AM -16.6 °F - -22.0 °F 76% 30.20 in 10.0 mi Calm Calm - N/A   Clear
7:50 AM -14.8 °F -24.8 °F -18.4 °F 84% 30.17 in 10.0 mi South 3.5 mph - N/A   Clear
8:50 AM -9.4 °F -24.3 °F -14.8 °F 77% 30.15 in 10.0 mi SSW 6.9 mph - N/A   Overcast
9:50 AM -5.8 °F -23.4 °F -9.4 °F 84% 30.13 in 10.0 mi SSW 10.4 mph - N/A   Overcast
10:49 AM -0.4 °F -19.9 °F -4.0 °F 85% 30.09 in 10.0 mi SSW 15.0 mph - N/A   Overcast
11:58 AM 3.2 °F -18.6 °F -4.0 °F 72% 30.02 in 10.0 mi SSW 21.9 mph 28.8 mph N/A   Overcast
12:54 PM 5.0 °F -17.5 °F -4.0 °F 66% 29.97 in 10.0 mi SW 25.3 mph 32.2 mph N/A   Overcast
1:47 PM 6.8 °F -13.4 °F -4.0 °F 61% 29.93 in 10.0 mi SSW 20.7 mph 29.9 mph N/A   Overcast
2:47 PM 6.8 °F -11.3 °F -2.2 °F 67% 29.87 in 7.0 mi SSW 16.1 mph 26.5 mph N/A   Overcast
3:26 PM 10.4 °F -9.1 °F -0.4 °F 62% 29.85 in 1.5 mi SSW 21.9 mph - N/A Snow Light Snow
3:48 PM 6.8 °F -12.9 °F 1.4 °F 79% 29.83 in 1.0 mi South 19.6 mph 25.3 mph N/A Snow Light Snow
4:04 PM 6.8 °F -13.8 °F 3.2 °F 85% 29.81 in 0.8 mi South 21.9 mph 26.5 mph N/A Snow Light Snow
4:50 PM 6.8 °F -15.5 °F 3.2 °F 85% 29.76 in 0.5 mi South 26.5 mph 33.4 mph N/A Snow Light Snow
5:55 PM 8.6 °F -12.7 °F 3.2 °F 79% 29.68 in 1.5 mi South 25.3 mph 35.7 mph N/A Snow Light Snow
6:55 PM 10.4 °F -9.9 °F 3.2 °F 73% 29.64 in 3.0 mi South 24.2 mph 38.0 mph N/A Snow Light Snow
7:50 PM 12.2 °F -8.2 °F 5.0 °F 73% 29.64 in 1.5 mi SSW 26.5 mph 43.7 mph N/A Snow Light Snow
8:55 PM 12.2 °F -7.9 °F 6.8 °F 79% 29.59 in 3.0 mi SSW 25.3 mph 36.8 mph N/A Snow Light Snow
9:50 PM 12.2 °F -7.9 °F 8.6 °F 85% 29.57 in 1.0 mi SSW 25.3 mph 33.4 mph N/A Snow Light Snow
10:17 PM 13.5 °F -5.8 °F 8.8 °F 82% 29.55 in 1.2 mi SSW 24.2 mph 33.4 mph N/A Snow Light Snow
10:37 PM 13.5 °F -6.5 °F 10.0 °F 86% 29.55 in 1.0 mi SSW 26.5 mph 33.4 mph N/A Snow Snow
10:57 PM 13.8 °F -6.7 °F 10.4 °F 86% 29.54 in 1.0 mi SSW 28.8 mph 36.8 mph N/A Snow Snow
11:17 PM 14.0 °F -5.8 °F 10.6 °F 86% 29.53 in 1.0 mi SSW 26.5 mph 35.7 mph N/A Snow Light Snow
11:36 PM 14.5 °F -4.4 °F 10.9 °F 86% 29.53 in 1.5 mi SSW 24.2 mph 29.9 mph N/A Snow Light Snow
11:57 PM 14.7 °F -4.5 °F 11.3 °F 86% 29.52 in 1.5 mi SSW 25.3 mph 33.4 mph N/A Snow Light Snow